Location: Boursonne
(49.2024°N, 3.0468°E)
Time: 07:04:18
(UTC+00:00)

Cosmos 2084 Rocket - Pass Details

Date: 03 March 2021
Orbit: 528 x 653 km, 62.8° (Epoch: 12 April)

Event Time Altitude Azimuth Distance (km) Brightness Sun altitude
Rises 18:22:42 0° 316° (NW) 2,795 7.6 -8.7°
Reaches altitude 10° 18:24:54 10° 316° (NW) 1,913 6.8 -9.1°
Maximum altitude 18:29:14 88° 232° (SW) 609 3.5 -9.8°
Drops below altitude 10° 18:33:44 10° 139° (SE) 1,980 5.8 -10.5°
Enters shadow 18:35:01 - 139° (SE) 2,494 6.3 -10.7°
